Weather History for KLTS - June, 2013

Change the Weather History Date:

Thursday, June 27, 2013

  Actual Average Record
Temperature  
Mean Temperature 91 °F -  
Max Temperature 108 °F 90 °F 108 °F (2013)
Min Temperature 75 °F 69 °F 57 °F (2006)
Cooling Degree Days 26    
Growing Degree Days 41 (Base 50)    
Moisture  
Dew Point 63 °F    
Average Humidity 44    
Maximum Humidity 80    
Minimum Humidity 19    
Precipitation  
Precipitation 0.07 in - - ()
Sea Level Pressure  
Sea Level Pressure 29.89 in    
Wind  
Wind Speed 11 mph (SSE)    
Max Wind Speed 41 mph    
Max Gust Speed 53 mph    
Visibility 10 miles    
Events      
Averages and records for this station are not official NWS values.
T = Trace of Precipitation, MM = Missing Value Source: NWS Daily Summary

Daily Weather History Graph

Daily Weather History Graph

Search for Another Location

Airport or City:

Trip Planner

Search our weather history database for the weather conditions in past years. The results will help you decide how hot, cold, wet, or windy it might be!

Date:

Astronomy

Jun. 27, 2013 Rise Set
Actual Time 6:26 AM CDT 8:54 PM CDT
Civil Twilight 5:56 AM CDT 9:23 PM CDT
Nautical Twilight 5:20 AM CDT 10:00 PM CDT
Astronomical Twilight 4:40 AM CDT 10:40 PM CDT
Moon No Moon Rise 11:16 AM CDT (6/27)
Length of Visible Light 15h 26m
Length of Day
14h 27m
Waning Gibbous, 76% of the Moon is Illuminated
Jun 27
Waning Gibbous
Jun 29
Last Quarter
Jul 8
New
Jul 15
First Quarter
Jul 22
Full

Hourly Weather History & Observations

Time (CDT) Temp. Heat Index Dew Point Humidity Pressure Visibility Wind Dir Wind Speed Gust Speed Precip Events Conditions
12:58 AM 83.3 °F 86.9 °F 69.1 °F 62% 29.85 in 10.0 mi ESE 10.4 mph - N/A   Clear
1:58 AM 83.1 °F 86.6 °F 68.7 °F 62% 29.84 in 10.0 mi ESE 10.4 mph - N/A   Clear
2:58 AM 80.2 °F 83.1 °F 68.9 °F 68% 29.84 in 10.0 mi ESE 5.8 mph - N/A   Clear
3:58 AM 78.6 °F - 68.7 °F 72% 29.86 in 10.0 mi East 8.1 mph - N/A   Clear
4:58 AM 77.5 °F - 68.4 °F 73% 29.86 in 10.0 mi ESE 5.8 mph - N/A   Clear
5:58 AM 75.0 °F - 68.4 °F 80% 29.88 in 10.0 mi ESE 6.9 mph - N/A   Clear
6:58 AM 75.4 °F - 68.0 °F 78% 29.90 in 10.0 mi ESE 4.6 mph - N/A   Clear
7:58 AM 79.9 °F - 67.1 °F 65% 29.91 in 10.0 mi SSE 10.4 mph - N/A   Clear
8:58 AM 86.4 °F 88.7 °F 66.6 °F 51% 29.91 in 10.0 mi South 11.5 mph - N/A   Clear
9:58 AM 93.7 °F 96.7 °F 65.8 °F 40% 29.92 in 10.0 mi SSW 15.0 mph - N/A   Clear
10:58 AM 96.4 °F 99.4 °F 65.5 °F 36% 29.91 in 10.0 mi SSW 15.0 mph - N/A   Clear
11:58 AM 99.7 °F 102.9 °F 64.6 °F 32% 29.91 in 10.0 mi WSW 10.4 mph - N/A   Clear
12:58 PM 101.8 °F 104.9 °F 63.7 °F 29% 29.90 in 10.0 mi SW 9.2 mph - N/A   Clear
1:58 PM 104.4 °F 105.2 °F 60.3 °F 23% 29.89 in 10.0 mi South 12.7 mph 17.3 mph N/A   Partly Cloudy
2:58 PM 105.8 °F 106.1 °F 58.5 °F 21% 29.88 in 10.0 mi South 5.8 mph 17.3 mph N/A   Partly Cloudy
3:58 PM 106.3 °F 107.7 °F 59.5 °F 22% 29.86 in 10.0 mi SSE 11.5 mph 21.9 mph N/A   Clear
4:58 PM 107.8 °F 107.7 °F 57.9 °F 19% 29.84 in 10.0 mi SSW 9.2 mph 19.6 mph N/A   Clear
5:58 PM 106.5 °F 106.6 °F 57.0 °F 20% 29.81 in 10.0 mi South 13.8 mph 20.7 mph N/A   Clear
6:58 PM 105.6 °F 104.6 °F 56.1 °F 19% 29.78 in 10.0 mi SSW 12.7 mph 21.9 mph N/A   Clear
7:58 PM 102.9 °F 102.4 °F 56.7 °F 22% 29.82 in 10.0 mi South 10.4 mph - N/A   Clear
8:58 PM 94.1 °F 92.8 °F 57.7 °F 29% 29.85 in 10.0 mi SE 8.1 mph - N/A   Clear
9:58 PM 87.8 °F 87.4 °F 60.1 °F 39% 29.88 in 10.0 mi East 5.8 mph - N/A   Clear
10:41 PM 91.4 °F 91.4 °F 60.8 °F 36% 30.04 in 8.0 mi NNE 41.4 mph 52.9 mph N/A   Mostly Cloudy
10:58 PM 86.2 °F 87.1 °F 63.0 °F 46% 30.01 in 10.0 mi NNE 31.1 mph 48.3 mph 0.07 in   Scattered Clouds
11:58 PM 82.9 °F 83.8 °F 62.8 °F 50% 29.99 in 10.0 mi NE 17.3 mph 33.4 mph N/A   Scattered Clouds